Location: Waldron
(50.8520°N, 102.5121°W)
Time: 11:30:20
(UTC+00:00)

Tiangong - Visible Passes

Search period start: 12 August 2022 00:00
Search period end: 22 August 2022 00:00
Orbit: 379 x 386 km, 41.5° (Epoch: 12 August)

Date Brightness Start Highest point End Pass type
(mag) Time Alt. Az. Time Alt. Az. Time Alt. Az.
18 Aug 0.1 02:58:38 10° S 02:59:36 11° SSE 03:00:31 10° SSE visible
19 Aug -0.1 03:33:32 10° SSW 03:35:11 15° S 03:35:11 15° S visible
20 Aug 0.5 04:09:25 10° SW 04:09:42 11° SW 04:09:42 11° SW visible
21 Aug -0.1 03:09:03 10° SW 03:10:59 15° S 03:11:59 14° SSE visible
